Time,TemperatureF,DewpointF,PressureIn,WindDirection,WindDirectionDegrees,WindSpeedMPH,WindSpeedGustMPH,Humidity,HourlyPrecipIn,Conditions,Clouds,dailyrainin,SoftwareType,DateUTC
2013-04-22 00:00:00,34.4,30.4,30.47,East,94,0.0,1.0,85,0.00,,---,0.00,VWS V14.01,2013-04-22 05:00:00,
2013-04-22 00:01:00,34.4,30.4,30.47,NE,39,0.0,1.0,85,0.00,,---,0.00,VWS V14.01,2013-04-22 05:01:00,
2013-04-22 00:06:00,34.4,30.4,30.47,NE,38,0.0,1.0,85,0.00,,---,0.00,VWS V14.01,2013-04-22 05:06:00,
2013-04-22 00:11:00,34.4,30.4,30.47,NE,53,0.0,1.0,85,0.00,,---,0.00,VWS V14.01,2013-04-22 05:11:00,
2013-04-22 00:16:00,34.4,30.6,30.47,NE,53,0.0,1.0,86,0.00,,---,0.00,VWS V14.01,2013-04-22 05:16:00,
2013-04-22 00:21:00,34.5,30.5,30.47,ENE,60,0.0,2.0,85,0.00,,---,0.00,VWS V14.01,2013-04-22 05:21:00,
2013-04-22 00:26:00,34.6,30.6,30.47,ENE,71,0.0,2.0,85,0.00,,---,0.00,VWS V14.01,2013-04-22 05:26:00,
2013-04-22 00:30:00,34.5,30.5,30.46,ENE,70,0.0,2.0,85,0.00,,---,0.00,VWS V14.01,2013-04-22 05:30:00,
2013-04-22 00:31:00,34.4,30.4,30.46,ENE,71,0.0,0.0,85,0.00,,---,0.00,VWS V14.01,2013-04-22 05:31:00,
2013-04-22 00:36:00,34.0,30.3,30.46,ENE,70,0.0,0.0,86,0.00,,---,0.00,VWS V14.01,2013-04-22 05:36:00,
2013-04-22 00:41:00,33.7,30.0,30.46,ENE,70,0.0,0.0,86,0.00,,---,0.00,VWS V14.01,2013-04-22 05:41:00,
2013-04-22 00:46:00,33.5,30.0,30.46,ENE,70,0.0,0.0,87,0.00,,---,0.00,VWS V14.01,2013-04-22 05:46:00,
2013-04-22 00:51:00,33.1,29.7,30.46,ENE,70,0.0,0.0,87,0.00,,---,0.00,VWS V14.01,2013-04-22 05:51:00,
2013-04-22 00:56:00,32.8,29.6,30.46,ENE,70,0.0,0.0,88,0.00,,---,0.00,VWS V14.01,2013-04-22 05:56:00,
2013-04-22 01:00:00,32.6,29.5,30.46,ENE,71,0.0,0.0,88,0.00,,---,0.00,VWS V14.01,2013-04-22 06:00:00,
2013-04-22 01:01:00,32.4,29.2,30.46,ENE,71,0.0,0.0,88,0.00,,---,0.00,VWS V14.01,2013-04-22 06:01:00,
2013-04-22 01:06:00,32.0,29.1,30.46,ENE,71,0.0,0.0,89,0.00,,---,0.00,VWS V14.01,2013-04-22 06:06:00,
2013-04-22 01:11:00,32.0,29.7,30.45,ENE,71,0.0,0.0,91,0.00,,---,0.00,VWS V14.01,2013-04-22 06:11:00,
2013-04-22 01:16:00,31.9,29.6,30.45,ENE,70,0.0,0.0,91,0.00,,---,0.00,VWS V14.01,2013-04-22 06:16:00,
2013-04-22 01:21:00,31.6,29.3,30.45,ENE,70,0.0,0.0,91,0.00,,---,0.00,VWS V14.01,2013-04-22 06:21:00,
2013-04-22 01:26:00,31.5,29.5,30.45,ENE,71,0.0,0.0,92,0.00,,---,0.00,VWS V14.01,2013-04-22 06:26:00,
2013-04-22 01:30:00,31.4,29.4,30.45,ENE,70,0.0,0.0,92,0.00,,---,0.00,VWS V14.01,2013-04-22 06:30:00,
2013-04-22 01:31:00,31.3,29.2,30.45,ENE,70,0.0,0.0,92,0.00,,---,0.00,VWS V14.01,2013-04-22 06:31:00,
2013-04-22 01:36:00,31.3,29.5,30.45,ENE,70,0.0,0.0,93,0.00,,---,0.00,VWS V14.01,2013-04-22 06:36:00,
2013-04-22 01:41:00,31.4,29.6,30.45,ENE,71,0.0,0.0,93,0.00,,---,0.00,VWS V14.01,2013-04-22 06:41:00,
2013-04-22 01:46:00,31.5,29.7,30.44,ENE,71,0.0,0.0,93,0.00,,---,0.00,VWS V14.01,2013-04-22 06:46:00,
2013-04-22 01:51:00,31.4,29.6,30.44,ENE,70,0.0,0.0,93,0.00,,---,0.00,VWS V14.01,2013-04-22 06:51:00,
2013-04-22 01:56:00,31.4,29.6,30.44,ENE,71,0.0,0.0,93,0.00,,---,0.00,VWS V14.01,2013-04-22 06:56:00,
2013-04-22 02:00:00,31.4,29.6,30.44,ENE,70,0.0,0.0,93,0.00,,---,0.00,VWS V14.01,2013-04-22 07:00:00,
2013-04-22 02:01:00,31.4,29.6,30.44,ENE,71,0.0,0.0,93,0.00,,---,0.00,VWS V14.01,2013-04-22 07:01:00,
2013-04-22 02:06:00,31.4,29.6,30.44,ENE,70,0.0,0.0,93,0.00,,---,0.00,VWS V14.01,2013-04-22 07:06:00,
2013-04-22 02:11:00,31.2,29.4,30.44,ENE,70,0.0,0.0,93,0.00,,---,0.00,VWS V14.01,2013-04-22 07:11:00,
2013-04-22 02:16:00,31.1,29.3,30.43,ENE,70,0.0,0.0,93,0.00,,---,0.00,VWS V14.01,2013-04-22 07:16:00,
2013-04-22 02:21:00,31.1,29.3,30.43,ENE,71,0.0,0.0,93,0.00,,---,0.00,VWS V14.01,2013-04-22 07:21:00,
2013-04-22 02:26:00,31.0,29.5,30.43,ENE,70,0.0,0.0,94,0.00,,---,0.00,VWS V14.01,2013-04-22 07:26:00,
2013-04-22 02:30:00,31.0,29.5,30.43,ENE,70,0.0,0.0,94,0.00,,---,0.00,VWS V14.01,2013-04-22 07:30:00,
2013-04-22 02:31:00,31.0,29.5,30.43,ENE,70,0.0,0.0,94,0.00,,---,0.00,VWS V14.01,2013-04-22 07:31:00,
2013-04-22 02:36:00,30.8,29.3,30.43,ENE,70,0.0,0.0,94,0.00,,---,0.00,VWS V14.01,2013-04-22 07:36:00,
2013-04-22 02:41:00,30.5,28.7,30.43,ENE,70,0.0,0.0,93,0.00,,---,0.00,VWS V14.01,2013-04-22 07:41:00,
2013-04-22 02:46:00,30.4,28.9,30.43,ENE,70,0.0,0.0,94,0.00,,---,0.00,VWS V14.01,2013-04-22 07:46:00,
2013-04-22 02:51:00,30.3,28.8,30.43,ENE,71,0.0,0.0,94,0.00,,---,0.00,VWS V14.01,2013-04-22 07:51:00,
2013-04-22 02:56:00,30.1,28.6,30.43,ENE,70,0.0,0.0,94,0.00,,---,0.00,VWS V14.01,2013-04-22 07:56:00,
2013-04-22 03:00:00,30.1,28.6,30.42,ENE,71,0.0,0.0,94,0.00,,---,0.00,VWS V14.01,2013-04-22 08:00:00,
2013-04-22 03:01:00,30.1,28.6,30.42,ENE,70,0.0,0.0,94,0.00,,---,0.00,VWS V14.01,2013-04-22 08:01:00,
2013-04-22 03:06:00,30.0,28.7,30.42,ENE,71,0.0,0.0,95,0.00,,---,0.00,VWS V14.01,2013-04-22 08:06:00,
2013-04-22 03:11:00,30.0,28.7,30.42,ENE,70,0.0,0.0,95,0.00,,---,0.00,VWS V14.01,2013-04-22 08:11:00,
2013-04-22 03:16:00,29.8,28.5,30.42,ENE,70,0.0,0.0,95,0.00,,---,0.00,VWS V14.01,2013-04-22 08:16:00,
2013-04-22 03:21:00,29.8,28.5,30.42,ENE,70,0.0,0.0,95,0.00,,---,0.00,VWS V14.01,2013-04-22 08:21:00,
2013-04-22 03:26:00,29.7,28.5,30.42,ENE,70,0.0,0.0,95,0.00,,---,0.00,VWS V14.01,2013-04-22 08:26:00,
2013-04-22 03:30:00,29.6,28.4,30.42,ENE,71,0.0,0.0,95,0.00,,---,0.00,VWS V14.01,2013-04-22 08:30:00,
2013-04-22 03:31:00,29.4,28.1,30.42,ENE,70,0.0,0.0,95,0.00,,---,0.00,VWS V14.01,2013-04-22 08:31:00,
2013-04-22 03:36:00,29.0,27.8,30.42,ENE,70,0.0,0.0,95,0.00,,---,0.00,VWS V14.01,2013-04-22 08:36:00,
2013-04-22 03:41:00,28.8,27.5,30.42,ENE,70,0.0,0.0,95,0.00,,---,0.00,VWS V14.01,2013-04-22 08:41:00,
2013-04-22 03:46:00,28.9,27.9,30.42,ENE,71,0.0,0.0,96,0.00,,---,0.00,VWS V14.01,2013-04-22 08:46:00,
2013-04-22 03:51:00,29.1,28.1,30.41,ENE,71,0.0,0.0,96,0.00,,---,0.00,VWS V14.01,2013-04-22 08:51:00,
2013-04-22 03:56:00,29.2,28.2,30.41,ENE,71,0.0,0.0,96,0.00,,---,0.00,VWS V14.01,2013-04-22 08:56:00,
2013-04-22 04:00:00,29.3,28.3,30.41,ENE,70,0.0,0.0,96,0.00,,---,0.00,VWS V14.01,2013-04-22 09:00:00,
2013-04-22 04:01:00,29.3,28.3,30.41,ENE,70,0.0,0.0,96,0.00,,---,0.00,VWS V14.01,2013-04-22 09:01:00,
2013-04-22 04:06:00,29.3,28.3,30.41,ENE,70,0.0,0.0,96,0.00,,---,0.00,VWS V14.01,2013-04-22 09:06:00,
2013-04-22 04:11:00,29.0,28.0,30.41,ENE,70,0.0,0.0,96,0.00,,---,0.00,VWS V14.01,2013-04-22 09:11:00,
2013-04-22 04:16:00,28.5,27.2,30.41,ENE,71,0.0,0.0,95,0.00,,---,0.00,VWS V14.01,2013-04-22 09:16:00,
2013-04-22 04:21:00,28.2,27.0,30.41,ENE,70,0.0,0.0,95,0.00,,---,0.00,VWS V14.01,2013-04-22 09:21:00,
2013-04-22 04:26:00,28.2,27.2,30.40,ENE,70,0.0,0.0,96,0.00,,---,0.00,VWS V14.01,2013-04-22 09:26:00,
2013-04-22 04:30:00,28.1,27.1,30.40,ENE,70,0.0,0.0,96,0.00,,---,0.00,VWS V14.01,2013-04-22 09:30:00,
2013-04-22 04:31:00,28.1,27.1,30.40,ENE,71,0.0,0.0,96,0.00,,---,0.00,VWS V14.01,2013-04-22 09:31:00,
2013-04-22 04:36:00,28.1,27.1,30.40,ENE,70,0.0,0.0,96,0.00,,---,0.00,VWS V14.01,2013-04-22 09:36:00,
2013-04-22 04:41:00,28.2,27.2,30.40,ENE,70,0.0,0.0,96,0.00,,---,0.00,VWS V14.01,2013-04-22 09:41:00,
2013-04-22 04:46:00,28.2,27.2,30.40,ENE,71,0.0,0.0,96,0.00,,---,0.00,VWS V14.01,2013-04-22 09:46:00,
2013-04-22 04:51:00,28.0,27.0,30.40,ENE,70,0.0,0.0,96,0.00,,---,0.00,VWS V14.01,2013-04-22 09:51:00,
2013-04-22 04:56:00,28.0,27.0,30.40,ENE,70,0.0,0.0,96,0.00,,---,0.00,VWS V14.01,2013-04-22 09:56:00,
2013-04-22 05:00:00,28.0,27.0,30.40,ENE,70,0.0,0.0,96,0.00,,---,0.00,VWS V14.01,2013-04-22 10:00:00,
2013-04-22 05:01:00,28.0,27.0,30.40,ENE,71,0.0,0.0,96,0.00,,---,0.00,VWS V14.01,2013-04-22 10:01:00,
2013-04-22 05:06:00,27.8,26.8,30.40,ENE,70,0.0,0.0,96,0.00,,---,0.00,VWS V14.01,2013-04-22 10:06:00,
2013-04-22 05:11:00,27.8,26.8,30.40,ENE,70,0.0,0.0,96,0.00,,---,0.00,VWS V14.01,2013-04-22 10:11:00,
2013-04-22 05:16:00,28.0,27.3,30.40,ENE,71,0.0,0.0,97,0.00,,---,0.00,VWS V14.01,2013-04-22 10:16:00,
2013-04-22 05:21:00,27.9,27.2,30.40,ENE,71,0.0,0.0,97,0.00,,---,0.00,VWS V14.01,2013-04-22 10:21:00,
2013-04-22 05:26:00,27.7,27.0,30.40,ENE,71,0.0,0.0,97,0.00,,---,0.00,VWS V14.01,2013-04-22 10:26:00,
2013-04-22 05:30:00,27.5,26.8,30.40,ENE,70,0.0,0.0,97,0.00,,---,0.00,VWS V14.01,2013-04-22 10:30:00,
2013-04-22 05:31:00,27.6,26.9,30.40,ENE,70,0.0,0.0,97,0.00,,---,0.00,VWS V14.01,2013-04-22 10:31:00,
2013-04-22 05:36:00,27.4,26.7,30.40,ENE,70,0.0,0.0,97,0.00,,---,0.00,VWS V14.01,2013-04-22 10:36:00,
2013-04-22 05:41:00,27.4,26.7,30.41,ENE,70,0.0,0.0,97,0.00,,---,0.00,VWS V14.01,2013-04-22 10:41:00,
2013-04-22 05:46:00,27.3,26.6,30.41,ENE,70,0.0,0.0,97,0.00,,---,0.00,VWS V14.01,2013-04-22 10:46:00,
2013-04-22 05:51:00,27.6,26.9,30.41,ENE,70,0.0,0.0,97,0.00,,---,0.00,VWS V14.01,2013-04-22 10:51:00,
2013-04-22 05:56:00,27.8,27.1,30.41,ENE,70,0.0,0.0,97,0.00,,---,0.00,VWS V14.01,2013-04-22 10:56:00,
2013-04-22 06:00:00,27.8,27.1,30.41,ENE,70,0.0,0.0,97,0.00,,---,0.00,VWS V14.01,2013-04-22 11:00:00,
2013-04-22 06:01:00,27.8,27.1,30.41,ENE,71,0.0,0.0,97,0.00,,---,0.00,VWS V14.01,2013-04-22 11:01:00,
2013-04-22 06:06:00,27.7,27.0,30.41,ENE,70,0.0,0.0,97,0.00,,---,0.00,VWS V14.01,2013-04-22 11:06:00,
2013-04-22 06:11:00,27.8,27.1,30.41,ENE,70,0.0,0.0,97,0.00,,---,0.00,VWS V14.01,2013-04-22 11:11:00,
2013-04-22 06:16:00,28.1,27.4,30.41,ENE,70,0.0,0.0,97,0.00,,---,0.00,VWS V14.01,2013-04-22 11:16:00,
2013-04-22 06:21:00,28.5,27.8,30.41,ENE,70,0.0,0.0,97,0.00,,---,0.00,VWS V14.01,2013-04-22 11:21:00,
2013-04-22 06:26:00,28.6,27.9,30.41,ENE,70,0.0,0.0,97,0.00,,---,0.00,VWS V14.01,2013-04-22 11:26:00,
2013-04-22 06:30:00,28.6,27.9,30.41,ENE,70,0.0,0.0,97,0.00,,---,0.00,VWS V14.01,2013-04-22 11:30:00,
2013-04-22 06:31:00,28.8,28.1,30.42,ENE,70,0.0,0.0,97,0.00,,---,0.00,VWS V14.01,2013-04-22 11:31:00,
2013-04-22 06:36:00,29.3,28.6,30.42,ENE,70,0.0,0.0,97,0.00,,---,0.00,VWS V14.01,2013-04-22 11:36:00,
2013-04-22 06:41:00,30.0,29.2,30.42,ENE,70,0.0,0.0,97,0.00,,---,0.00,VWS V14.01,2013-04-22 11:41:00,
2013-04-22 06:46:00,30.6,30.1,30.42,ENE,71,0.0,0.0,98,0.00,,---,0.00,VWS V14.01,2013-04-22 11:46:00,
2013-04-22 06:51:00,31.2,30.7,30.42,ENE,71,0.0,0.0,98,0.00,,---,0.00,VWS V14.01,2013-04-22 11:51:00,
2013-04-22 06:56:00,32.1,31.6,30.42,ENE,70,0.0,0.0,98,0.00,,---,0.00,VWS V14.01,2013-04-22 11:56:00,
2013-04-22 07:00:00,32.6,32.1,30.42,ENE,70,0.0,0.0,98,0.00,,---,0.00,VWS V14.01,2013-04-22 12:00:00,
2013-04-22 07:01:00,33.2,32.7,30.42,ENE,70,0.0,0.0,98,0.00,,---,0.00,VWS V14.01,2013-04-22 12:01:00,
2013-04-22 07:06:00,34.6,34.1,30.42,ENE,73,0.0,1.0,98,0.00,,---,0.00,VWS V14.01,2013-04-22 12:06:00,
2013-04-22 07:11:00,36.0,35.5,30.42,NNE,25,0.0,3.0,98,0.00,,---,0.00,VWS V14.01,2013-04-22 12:11:00,
2013-04-22 07:16:00,37.4,36.9,30.41,ESE,120,0.0,3.0,98,0.00,,---,0.00,VWS V14.01,2013-04-22 12:16:00,
2013-04-22 07:21:00,38.7,37.9,30.41,East,101,0.0,3.0,97,0.00,,---,0.00,VWS V14.01,2013-04-22 12:21:00,
2013-04-22 07:26:00,39.6,36.6,30.41,NE,54,0.0,6.0,89,0.00,,---,0.00,VWS V14.01,2013-04-22 12:26:00,
2013-04-22 07:30:00,40.1,36.5,30.41,East,96,1.0,6.0,87,0.00,,---,0.00,VWS V14.01,2013-04-22 12:30:00,
2013-04-22 07:31:00,40.6,36.2,30.41,East,79,1.0,3.0,84,0.00,,---,0.00,VWS V14.01,2013-04-22 12:31:00,
2013-04-22 07:35:00,41.8,37.0,30.41,NE,50,2.0,3.0,83,0.00,,---,0.00,VWS V14.01,2013-04-22 12:35:00,
2013-04-22 07:40:00,42.5,35.8,30.41,ENE,75,2.0,4.0,77,0.00,,---,0.00,VWS V14.01,2013-04-22 12:40:00,
2013-04-22 07:45:00,43.0,36.0,30.41,ENE,76,2.0,4.0,76,0.00,,---,0.00,VWS V14.01,2013-04-22 12:45:00,
2013-04-22 07:50:00,43.8,36.1,30.41,East,91,1.0,4.0,74,0.00,,---,0.00,VWS V14.01,2013-04-22 12:50:00,
2013-04-22 07:55:00,44.4,35.6,30.40,East,79,3.0,4.0,71,0.00,,---,0.00,VWS V14.01,2013-04-22 12:55:00,
2013-04-22 08:00:00,44.6,35.4,30.40,ENE,63,3.0,5.0,70,0.00,,---,0.00,VWS V14.01,2013-04-22 13:00:00,
2013-04-22 08:05:00,44.9,34.6,30.40,NE,38,2.0,5.0,67,0.00,,---,0.00,VWS V14.01,2013-04-22 13:05:00,
2013-04-22 08:10:00,45.2,34.9,30.40,East,99,0.0,5.0,67,0.00,,---,0.00,VWS V14.01,2013-04-22 13:10:00,
2013-04-22 08:15:00,45.8,34.3,30.40,SE,125,1.0,5.0,64,0.00,,---,0.00,VWS V14.01,2013-04-22 13:15:00,
2013-04-22 08:20:00,46.5,35.0,30.40,East,94,3.0,5.0,64,0.00,,---,0.00,VWS V14.01,2013-04-22 13:20:00,
2013-04-22 08:25:00,46.8,34.5,30.40,ESE,114,4.0,5.0,62,0.00,,---,0.00,VWS V14.01,2013-04-22 13:25:00,
2013-04-22 08:30:00,47.2,34.9,30.40,East,92,3.0,4.0,62,0.00,,---,0.00,VWS V14.01,2013-04-22 13:30:00,
2013-04-22 08:35:00,47.6,34.0,30.40,ESE,102,0.0,5.0,59,0.00,,---,0.00,VWS V14.01,2013-04-22 13:35:00,
2013-04-22 08:40:00,48.1,34.0,30.40,ENE,64,6.0,6.0,58,0.00,,---,0.00,VWS V14.01,2013-04-22 13:40:00,
2013-04-22 08:45:00,48.1,33.2,30.40,ESE,111,2.0,6.0,56,0.00,,---,0.00,VWS V14.01,2013-04-22 13:45:00,
2013-04-22 08:50:00,48.6,33.6,30.40,SE,133,1.0,6.0,56,0.00,,---,0.00,VWS V14.01,2013-04-22 13:50:00,
2013-04-22 08:55:00,48.8,33.8,30.40,NE,49,3.0,6.0,56,0.00,,---,0.00,VWS V14.01,2013-04-22 13:55:00,
2013-04-22 09:00:00,49.3,34.7,30.40,East,86,1.0,4.0,57,0.00,,---,0.00,VWS V14.01,2013-04-22 14:00:00,
2013-04-22 09:05:00,49.9,33.5,30.40,North,8,1.0,5.0,53,0.00,,---,0.00,VWS V14.01,2013-04-22 14:05:00,
2013-04-22 09:10:00,50.1,33.2,30.40,SE,135,2.0,5.0,52,0.00,,---,0.00,VWS V14.01,2013-04-22 14:10:00,
2013-04-22 09:15:00,50.1,33.2,30.40,East,88,1.0,6.0,52,0.00,,---,0.00,VWS V14.01,2013-04-22 14:15:00,
2013-04-22 09:20:00,50.3,32.9,30.40,ESE,121,2.0,6.0,51,0.00,,---,0.00,VWS V14.01,2013-04-22 14:20:00,
2013-04-22 09:25:00,51.0,33.5,30.39,SSE,159,0.0,6.0,51,0.00,,---,0.00,VWS V14.01,2013-04-22 14:25:00,
2013-04-22 09:30:00,51.4,33.9,30.40,ESE,117,3.0,3.0,51,0.00,,---,0.00,VWS V14.01,2013-04-22 14:30:00,
2013-04-22 09:35:00,51.9,33.4,30.40,NE,47,1.0,5.0,49,0.00,,---,0.00,VWS V14.01,2013-04-22 14:35:00,
2013-04-22 09:40:00,52.6,34.5,30.39,East,86,2.0,5.0,50,0.00,,---,0.00,VWS V14.01,2013-04-22 14:40:00,
2013-04-22 09:45:00,53.0,33.8,30.39,East,94,1.0,5.0,48,0.00,,---,0.00,VWS V14.01,2013-04-22 14:45:00,
2013-04-22 09:50:00,53.3,33.1,30.39,NE,40,1.0,5.0,46,0.00,,---,0.00,VWS V14.01,2013-04-22 14:50:00,
2013-04-22 09:55:00,53.5,33.2,30.39,SW,229,0.0,5.0,46,0.00,,---,0.00,VWS V14.01,2013-04-22 14:55:00,
2013-04-22 10:00:00,53.7,32.9,30.39,NE,53,1.0,5.0,45,0.00,,---,0.00,VWS V14.01,2013-04-22 15:00:00,
2013-04-22 10:05:00,54.0,33.2,30.39,East,98,2.0,6.0,45,0.00,,---,0.00,VWS V14.01,2013-04-22 15:05:00,
2013-04-22 10:10:00,54.2,32.8,30.39,SW,218,0.0,6.0,44,0.00,,---,0.00,VWS V14.01,2013-04-22 15:10:00,
2013-04-22 10:15:00,54.1,32.7,30.39,NE,44,0.0,6.0,44,0.00,,---,0.00,VWS V14.01,2013-04-22 15:15:00,
2013-04-22 10:20:00,54.9,32.8,30.39,SSE,150,1.0,6.0,43,0.00,,---,0.00,VWS V14.01,2013-04-22 15:20:00,
2013-04-22 10:25:00,55.9,32.6,30.39,South,171,2.0,6.0,41,0.00,,---,0.00,VWS V14.01,2013-04-22 15:25:00,
2013-04-22 10:30:00,55.8,32.5,30.39,SE,130,0.0,3.0,41,0.00,,---,0.00,VWS V14.01,2013-04-22 15:30:00,
2013-04-22 10:35:00,55.9,32.0,30.38,ESE,114,4.0,6.0,40,0.00,,---,0.00,VWS V14.01,2013-04-22 15:35:00,
2013-04-22 10:40:00,55.8,32.5,30.39,NNE,30,5.0,6.0,41,0.00,,---,0.00,VWS V14.01,2013-04-22 15:40:00,
2013-04-22 10:45:00,56.1,31.5,30.38,SE,124,4.0,7.0,39,0.00,,---,0.00,VWS V14.01,2013-04-22 15:45:00,
2013-04-22 10:50:00,56.4,30.5,30.39,SE,142,2.0,7.0,37,0.00,,---,0.00,VWS V14.01,2013-04-22 15:50:00,
2013-04-22 10:55:00,56.6,30.0,30.38,NE,37,2.0,7.0,36,0.00,,---,0.00,VWS V14.01,2013-04-22 15:55:00,
2013-04-22 11:00:00,56.7,30.7,30.38,ESE,122,5.0,6.0,37,0.00,,---,0.00,VWS V14.01,2013-04-22 16:00:00,
2013-04-22 11:05:00,57.8,31.0,30.38,SSE,159,3.0,6.0,36,0.00,,---,0.00,VWS V14.01,2013-04-22 16:05:00,
2013-04-22 11:10:00,58.0,30.5,30.38,SSE,156,3.0,7.0,35,0.00,,---,0.00,VWS V14.01,2013-04-22 16:10:00,
2013-04-22 11:15:00,58.0,29.1,30.38,WSW,239,0.0,7.0,33,0.00,,---,0.00,VWS V14.01,2013-04-22 16:15:00,
2013-04-22 11:20:00,57.9,29.7,30.38,SE,124,4.0,7.0,34,0.00,,---,0.00,VWS V14.01,2013-04-22 16:20:00,
2013-04-22 11:25:00,58.3,30.1,30.37,SE,131,3.0,10.0,34,0.00,,---,0.00,VWS V14.01,2013-04-22 16:25:00,
2013-04-22 11:30:00,58.3,28.6,30.37,SW,218,3.0,4.0,32,0.00,,---,0.00,VWS V14.01,2013-04-22 16:30:00,
2013-04-22 11:35:00,59.0,28.4,30.37,SE,129,3.0,7.0,31,0.00,,---,0.00,VWS V14.01,2013-04-22 16:35:00,
2013-04-22 11:40:00,58.8,26.6,30.37,NNW,329,2.0,7.0,29,0.00,,---,0.00,VWS V14.01,2013-04-22 16:40:00,
2013-04-22 11:45:00,58.7,28.9,30.36,East,97,4.0,7.0,32,0.00,,---,0.00,VWS V14.01,2013-04-22 16:45:00,
2013-04-22 11:50:00,59.3,27.9,30.36,SSW,204,2.0,7.0,30,0.00,,---,0.00,VWS V14.01,2013-04-22 16:50:00,
2013-04-22 11:55:00,59.3,30.2,30.36,East,95,1.0,7.0,33,0.00,,---,0.00,VWS V14.01,2013-04-22 16:55:00,
2013-04-22 12:00:00,58.9,30.6,30.36,East,91,3.0,3.0,34,0.00,,---,0.00,VWS V14.01,2013-04-22 17:00:00,
2013-04-22 12:05:00,59.6,29.7,30.36,SSE,155,3.0,9.0,32,0.00,,---,0.00,VWS V14.01,2013-04-22 17:05:00,
2013-04-22 12:10:00,59.4,29.6,30.36,East,98,3.0,12.0,32,0.00,,---,0.00,VWS V14.01,2013-04-22 17:10:00,
2013-04-22 12:15:00,59.5,29.6,30.35,WNW,283,1.0,12.0,32,0.00,,---,0.00,VWS V14.01,2013-04-22 17:15:00,
2013-04-22 12:20:00,59.9,30.8,30.35,ESE,114,3.0,12.0,33,0.00,,---,0.00,VWS V14.01,2013-04-22 17:20:00,
2013-04-22 12:25:00,60.1,30.2,30.35,ESE,103,2.0,12.0,32,0.00,,---,0.00,VWS V14.01,2013-04-22 17:25:00,
2013-04-22 12:30:00,60.5,31.3,30.35,SSE,163,4.0,7.0,33,0.00,,---,0.00,VWS V14.01,2013-04-22 17:30:00,
2013-04-22 12:35:00,60.9,30.9,30.34,South,170,1.0,7.0,32,0.00,,---,0.00,VWS V14.01,2013-04-22 17:35:00,
2013-04-22 12:40:00,60.4,31.9,30.34,SSW,211,3.0,7.0,34,0.00,,---,0.00,VWS V14.01,2013-04-22 17:40:00,
2013-04-22 12:45:00,60.5,33.4,30.34,SSE,165,3.0,7.0,36,0.00,,---,0.00,VWS V14.01,2013-04-22 17:45:00,
2013-04-22 12:50:00,60.1,34.4,30.33,ESE,117,4.0,9.0,38,0.00,,---,0.00,VWS V14.01,2013-04-22 17:50:00,
2013-04-22 12:55:00,60.5,36.7,30.33,ESE,117,2.0,12.0,41,0.00,,---,0.00,VWS V14.01,2013-04-22 17:55:00,
2013-04-22 13:00:00,60.4,36.6,30.33,SE,135,2.0,10.0,41,0.00,,---,0.00,VWS V14.01,2013-04-22 18:00:00,
2013-04-22 13:05:00,60.0,36.2,30.33,East,92,2.0,10.0,41,0.00,,---,0.00,VWS V14.01,2013-04-22 18:05:00,
2013-04-22 13:10:00,60.2,37.0,30.32,SSE,150,3.0,10.0,42,0.00,,---,0.00,VWS V14.01,2013-04-22 18:10:00,
2013-04-22 13:15:00,60.2,37.0,30.32,ENE,70,3.0,10.0,42,0.00,,---,0.00,VWS V14.01,2013-04-22 18:15:00,
2013-04-22 13:20:00,60.4,36.6,30.32,East,92,3.0,10.0,41,0.00,,---,0.00,VWS V14.01,2013-04-22 18:20:00,
2013-04-22 13:25:00,60.4,36.6,30.32,ENE,63,0.0,10.0,41,0.00,,---,0.00,VWS V14.01,2013-04-22 18:25:00,
2013-04-22 13:30:00,60.3,37.1,30.31,East,97,2.0,6.0,42,0.00,,---,0.00,VWS V14.01,2013-04-22 18:30:00,
2013-04-22 13:35:00,60.2,35.8,30.31,ESE,108,2.0,11.0,40,0.00,,---,0.00,VWS V14.01,2013-04-22 18:35:00,
2013-04-22 13:40:00,59.8,36.1,30.31,NE,40,6.0,11.0,41,0.00,,---,0.00,VWS V14.01,2013-04-22 18:40:00,
2013-04-22 13:45:00,60.1,35.7,30.31,ENE,66,5.0,11.0,40,0.00,,---,0.00,VWS V14.01,2013-04-22 18:45:00,
2013-04-22 13:50:00,60.6,35.5,30.31,East,88,5.0,11.0,39,0.00,,---,0.00,VWS V14.01,2013-04-22 18:50:00,
2013-04-22 13:55:00,60.3,35.3,30.30,ENE,76,2.0,11.0,39,0.00,,---,0.00,VWS V14.01,2013-04-22 18:55:00,
2013-04-22 14:00:00,59.9,34.2,30.30,ENE,75,3.0,9.0,38,0.00,,---,0.00,VWS V14.01,2013-04-22 19:00:00,
2013-04-22 14:05:00,59.9,35.5,30.30,East,92,4.0,9.0,40,0.00,,---,0.00,VWS V14.01,2013-04-22 19:05:00,
2013-04-22 14:10:00,60.2,32.5,30.29,NNE,16,3.0,10.0,35,0.00,,---,0.00,VWS V14.01,2013-04-22 19:10:00,
2013-04-22 14:15:00,59.9,34.9,30.29,ENE,78,4.0,10.0,39,0.00,,---,0.00,VWS V14.01,2013-04-22 19:15:00,
2013-04-22 14:20:00,60.2,34.5,30.29,East,93,2.0,10.0,38,0.00,,---,0.00,VWS V14.01,2013-04-22 19:20:00,
2013-04-22 14:25:00,60.1,33.8,30.29,ESE,122,2.0,10.0,37,0.00,,---,0.00,VWS V14.01,2013-04-22 19:25:00,
2013-04-22 14:30:00,59.8,32.8,30.29,ESE,108,1.0,6.0,36,0.00,,---,0.00,VWS V14.01,2013-04-22 19:30:00,
2013-04-22 14:35:00,59.9,32.2,30.29,NE,49,2.0,9.0,35,0.00,,---,0.00,VWS V14.01,2013-04-22 19:35:00,
2013-04-22 14:40:00,60.3,32.6,30.29,NNW,347,3.0,9.0,35,0.00,,---,0.00,VWS V14.01,2013-04-22 19:40:00,
2013-04-22 14:45:00,60.3,31.8,30.28,SE,134,3.0,9.0,34,0.00,,---,0.00,VWS V14.01,2013-04-22 19:45:00,
2013-04-22 14:50:00,60.2,32.5,30.28,ENE,62,3.0,9.0,35,0.00,,---,0.00,VWS V14.01,2013-04-22 19:50:00,
2013-04-22 14:55:00,60.6,32.1,30.28,ESE,106,0.0,9.0,34,0.00,,---,0.00,VWS V14.01,2013-04-22 19:55:00,
2013-04-22 15:00:00,60.6,30.6,30.28,ENE,57,4.0,10.0,32,0.00,,---,0.00,VWS V14.01,2013-04-22 20:00:00,
2013-04-22 15:05:00,60.5,31.3,30.28,WNW,283,0.0,10.0,33,0.00,,---,0.00,VWS V14.01,2013-04-22 20:05:00,
2013-04-22 15:10:00,60.5,30.5,30.28,NE,47,5.0,10.0,32,0.00,,---,0.00,VWS V14.01,2013-04-22 20:10:00,
2013-04-22 15:15:00,60.1,30.9,30.27,ENE,63,2.0,10.0,33,0.00,,---,0.00,VWS V14.01,2013-04-22 20:15:00,
2013-04-22 15:20:00,59.9,30.0,30.28,ENE,66,5.0,10.0,32,0.00,,---,0.00,VWS V14.01,2013-04-22 20:20:00,
2013-04-22 15:25:00,59.9,31.5,30.27,NE,49,7.0,10.0,34,0.00,,---,0.00,VWS V14.01,2013-04-22 20:25:00,
2013-04-22 15:30:00,59.5,29.6,30.27,ENE,76,7.0,8.0,32,0.00,,---,0.00,VWS V14.01,2013-04-22 20:30:00,
2013-04-22 15:35:00,59.7,29.8,30.27,NE,49,6.0,8.0,32,0.00,,---,0.00,VWS V14.01,2013-04-22 20:35:00,
2013-04-22 15:40:00,59.6,31.2,30.27,NNW,333,0.0,10.0,34,0.00,,---,0.00,VWS V14.01,2013-04-22 20:40:00,
2013-04-22 15:45:00,59.8,29.9,30.27,ENE,70,6.0,10.0,32,0.00,,---,0.00,VWS V14.01,2013-04-22 20:45:00,
2013-04-22 15:50:00,59.5,30.4,30.27,ENE,63,4.0,10.0,33,0.00,,---,0.00,VWS V14.01,2013-04-22 20:50:00,
2013-04-22 15:55:00,59.5,30.4,30.26,ENE,66,1.0,10.0,33,0.00,,---,0.00,VWS V14.01,2013-04-22 20:55:00,
2013-04-22 16:00:00,59.4,30.3,30.26,ENE,65,3.0,10.0,33,0.00,,---,0.00,VWS V14.01,2013-04-22 21:00:00,
2013-04-22 16:05:00,59.4,31.0,30.26,ESE,111,3.0,11.0,34,0.00,,---,0.00,VWS V14.01,2013-04-22 21:05:00,
2013-04-22 16:10:00,59.6,30.5,30.26,ESE,107,4.0,11.0,33,0.00,,---,0.00,VWS V14.01,2013-04-22 21:10:00,
2013-04-22 16:15:00,59.6,31.2,30.25,ENE,59,4.0,11.0,34,0.00,,---,0.00,VWS V14.01,2013-04-22 21:15:00,
2013-04-22 16:20:00,59.5,30.4,30.25,East,98,4.0,11.0,33,0.00,,---,0.00,VWS V14.01,2013-04-22 21:20:00,
2013-04-22 16:25:00,59.7,31.3,30.25,ENE,63,4.0,11.0,34,0.00,,---,0.00,VWS V14.01,2013-04-22 21:25:00,
2013-04-22 16:30:00,59.2,29.4,30.26,ENE,62,5.0,10.0,32,0.00,,---,0.00,VWS V14.01,2013-04-22 21:30:00,
2013-04-22 16:35:00,59.0,30.0,30.26,North,6,3.0,10.0,33,0.00,,---,0.00,VWS V14.01,2013-04-22 21:35:00,
2013-04-22 16:40:00,58.8,30.5,30.25,East,79,4.0,11.0,34,0.00,,---,0.00,VWS V14.01,2013-04-22 21:40:00,
2013-04-22 16:45:00,59.5,30.4,30.25,SE,141,3.0,11.0,33,0.00,,---,0.00,VWS V14.01,2013-04-22 21:45:00,
2013-04-22 16:50:00,59.5,29.6,30.25,NNW,345,3.0,11.0,32,0.00,,---,0.00,VWS V14.01,2013-04-22 21:50:00,
2013-04-22 16:55:00,59.0,30.0,30.25,NNW,347,1.0,11.0,33,0.00,,---,0.00,VWS V14.01,2013-04-22 21:55:00,
2013-04-22 17:00:00,59.0,30.0,30.25,ENE,72,2.0,6.0,33,0.00,,---,0.00,VWS V14.01,2013-04-22 22:00:00,
2013-04-22 17:05:00,58.9,29.1,30.25,ENE,78,3.0,6.0,32,0.00,,---,0.00,VWS V14.01,2013-04-22 22:05:00,
2013-04-22 17:10:00,58.8,29.0,30.25,East,86,2.0,8.0,32,0.00,,---,0.00,VWS V14.01,2013-04-22 22:10:00,
2013-04-22 17:15:00,58.7,28.9,30.25,East,94,5.0,9.0,32,0.00,,---,0.00,VWS V14.01,2013-04-22 22:15:00,
2013-04-22 17:20:00,58.0,29.1,30.25,East,92,3.0,10.0,33,0.00,,---,0.00,VWS V14.01,2013-04-22 22:20:00,
2013-04-22 17:25:00,57.6,29.5,30.24,NE,51,2.0,10.0,34,0.00,,---,0.00,VWS V14.01,2013-04-22 22:25:00,
2013-04-22 17:30:00,57.4,29.3,30.24,ENE,59,1.0,9.0,34,0.00,,---,0.00,VWS V14.01,2013-04-22 22:30:00,
2013-04-22 17:35:00,57.5,29.4,30.24,East,86,7.0,9.0,34,0.00,,---,0.00,VWS V14.01,2013-04-22 22:35:00,
2013-04-22 17:40:00,57.6,29.5,30.23,ENE,70,4.0,10.0,34,0.00,,---,0.00,VWS V14.01,2013-04-22 22:40:00,
2013-04-22 17:45:00,57.6,29.5,30.23,East,94,1.0,10.0,34,0.00,,---,0.00,VWS V14.01,2013-04-22 22:45:00,
2013-04-22 17:50:00,57.3,28.5,30.23,East,79,6.0,10.0,33,0.00,,---,0.00,VWS V14.01,2013-04-22 22:50:00,
2013-04-22 17:55:00,56.6,27.9,30.23,East,91,2.0,10.0,33,0.00,,---,0.00,VWS V14.01,2013-04-22 22:55:00,
2013-04-22 18:00:00,56.4,27.7,30.23,NE,50,0.0,4.0,33,0.00,,---,0.00,VWS V14.01,2013-04-22 23:00:00,
2013-04-22 18:05:00,56.5,28.5,30.23,ENE,71,7.0,7.0,34,0.00,,---,0.00,VWS V14.01,2013-04-22 23:05:00,
2013-04-22 18:10:00,56.3,30.4,30.22,East,88,1.0,9.0,37,0.00,,---,0.00,VWS V14.01,2013-04-22 23:10:00,
2013-04-22 18:15:00,56.1,30.2,30.22,ENE,67,1.0,9.0,37,0.00,,---,0.00,VWS V14.01,2013-04-22 23:15:00,
2013-04-22 18:20:00,56.1,30.9,30.22,East,94,4.0,9.0,38,0.00,,---,0.00,VWS V14.01,2013-04-22 23:20:00,
2013-04-22 18:25:00,55.6,31.1,30.22,ENE,72,6.0,9.0,39,0.00,,---,0.00,VWS V14.01,2013-04-22 23:25:00,
2013-04-22 18:30:00,55.1,31.2,30.21,SE,133,1.0,6.0,40,0.00,,---,0.00,VWS V14.01,2013-04-22 23:30:00,
2013-04-22 18:35:00,54.8,31.6,30.21,ENE,61,1.0,6.0,41,0.00,,---,0.00,VWS V14.01,2013-04-22 23:35:00,
2013-04-22 18:40:00,54.3,32.9,30.21,SE,127,6.0,12.0,44,0.00,,---,0.00,VWS V14.01,2013-04-22 23:40:00,
2013-04-22 18:45:00,53.9,34.2,30.21,ENE,61,0.0,12.0,47,0.00,,---,0.00,VWS V14.01,2013-04-22 23:45:00,
2013-04-22 18:50:00,53.5,34.3,30.21,NW,326,1.0,12.0,48,0.00,,---,0.00,VWS V14.01,2013-04-22 23:50:00,
2013-04-22 18:55:00,53.2,35.1,30.22,East,97,1.0,12.0,50,0.00,,---,0.00,VWS V14.01,2013-04-22 23:55:00,
2013-04-22 19:00:00,52.8,35.2,30.22,SE,141,0.0,5.0,51,0.00,,---,0.00,VWS V14.01,2013-04-23 00:00:00,
2013-04-22 19:05:00,52.4,35.8,30.22,ESE,112,0.0,5.0,53,0.00,,---,0.00,VWS V14.01,2013-04-23 00:05:00,
2013-04-22 19:09:00,52.1,36.4,30.22,ENE,76,1.0,5.0,55,0.00,,---,0.00,VWS V14.01,2013-04-23 00:09:00,
2013-04-22 19:14:00,51.7,36.5,30.22,East,94,1.0,5.0,56,0.00,,---,0.00,VWS V14.01,2013-04-23 00:14:00,
2013-04-22 19:19:00,51.3,37.0,30.22,East,83,0.0,6.0,58,0.00,,---,0.00,VWS V14.01,2013-04-23 00:19:00,
2013-04-22 19:24:00,51.0,37.2,30.22,SE,133,1.0,6.0,59,0.00,,---,0.00,VWS V14.01,2013-04-23 00:24:00,
2013-04-22 19:29:00,50.6,36.8,30.22,ESE,112,1.0,4.0,59,0.00,,---,0.00,VWS V14.01,2013-04-23 00:29:00,
2013-04-22 19:30:00,50.7,36.9,30.22,NNE,27,3.0,6.0,59,0.00,,---,0.00,VWS V14.01,2013-04-23 00:30:00,
2013-04-22 19:34:00,50.3,36.5,30.22,ENE,71,3.0,5.0,59,0.00,,---,0.00,VWS V14.01,2013-04-23 00:34:00,
2013-04-22 19:39:00,50.0,36.2,30.22,East,94,1.0,8.0,59,0.00,,---,0.00,VWS V14.01,2013-04-23 00:39:00,
2013-04-22 19:44:00,49.7,36.4,30.22,East,79,1.0,8.0,60,0.00,,---,0.00,VWS V14.01,2013-04-23 00:44:00,
2013-04-22 19:49:00,49.2,36.3,30.22,NE,50,0.0,8.0,61,0.00,,---,0.00,VWS V14.01,2013-04-23 00:49:00,
2013-04-22 19:54:00,49.0,36.2,30.22,ENE,60,1.0,8.0,61,0.00,,---,0.00,VWS V14.01,2013-04-23 00:54:00,
2013-04-22 19:59:00,48.8,36.4,30.22,ENE,58,1.0,2.0,62,0.00,,---,0.00,VWS V14.01,2013-04-23 00:59:00,
2013-04-22 20:00:00,48.9,36.5,30.22,ENE,60,0.0,8.0,62,0.00,,---,0.00,VWS V14.01,2013-04-23 01:00:00,
2013-04-22 20:04:00,48.6,36.6,30.22,East,91,1.0,8.0,63,0.00,,---,0.00,VWS V14.01,2013-04-23 01:04:00,
2013-04-22 20:09:00,48.3,36.3,30.22,East,82,1.0,8.0,63,0.00,,---,0.00,VWS V14.01,2013-04-23 01:09:00,
2013-04-22 20:14:00,48.1,36.5,30.22,East,96,1.0,8.0,64,0.00,,---,0.00,VWS V14.01,2013-04-23 01:14:00,
2013-04-22 20:19:00,47.8,36.6,30.22,ENE,64,0.0,8.0,65,0.00,,---,0.00,VWS V14.01,2013-04-23 01:19:00,
2013-04-22 20:24:00,47.6,36.8,30.22,East,96,3.0,8.0,66,0.00,,---,0.00,VWS V14.01,2013-04-23 01:24:00,
2013-04-22 20:29:00,47.4,36.6,30.22,NE,42,3.0,10.0,66,0.00,,---,0.00,VWS V14.01,2013-04-23 01:29:00,
2013-04-22 20:30:00,47.4,36.6,30.22,NE,50,2.0,8.0,66,0.00,,---,0.00,VWS V14.01,2013-04-23 01:30:00,
2013-04-22 20:34:00,47.3,36.5,30.22,ENE,75,1.0,10.0,66,0.00,,---,0.00,VWS V14.01,2013-04-23 01:34:00,
2013-04-22 20:39:00,47.2,36.4,30.22,ENE,60,2.0,10.0,66,0.00,,---,0.00,VWS V14.01,2013-04-23 01:39:00,
2013-04-22 20:44:00,47.0,36.6,30.22,ENE,57,4.0,10.0,67,0.00,,---,0.00,VWS V14.01,2013-04-23 01:44:00,
2013-04-22 20:49:00,47.0,36.6,30.22,ENE,63,1.0,10.0,67,0.00,,---,0.00,VWS V14.01,2013-04-23 01:49:00,
2013-04-22 20:54:00,46.9,36.9,30.22,ENE,75,2.0,10.0,68,0.00,,---,0.00,VWS V14.01,2013-04-23 01:54:00,
2013-04-22 20:59:00,46.8,36.8,30.21,East,79,1.0,4.0,68,0.00,,---,0.00,VWS V14.01,2013-04-23 01:59:00,
2013-04-22 21:00:00,46.8,36.8,30.21,NE,46,4.0,10.0,68,0.00,,---,0.00,VWS V14.01,2013-04-23 02:00:00,
2013-04-22 21:04:00,46.7,37.1,30.21,SE,127,2.0,6.0,69,0.00,,---,0.00,VWS V14.01,2013-04-23 02:04:00,
2013-04-22 21:09:00,46.6,37.0,30.21,East,94,1.0,6.0,69,0.00,,---,0.00,VWS V14.01,2013-04-23 02:09:00,
2013-04-22 21:14:00,46.4,36.8,30.21,East,99,1.0,7.0,69,0.00,,---,0.00,VWS V14.01,2013-04-23 02:14:00,
2013-04-22 21:19:00,46.2,37.0,30.21,ENE,77,2.0,7.0,70,0.00,,---,0.00,VWS V14.01,2013-04-23 02:19:00,
2013-04-22 21:24:00,46.2,37.0,30.21,East,95,1.0,7.0,70,0.00,,---,0.00,VWS V14.01,2013-04-23 02:24:00,
2013-04-22 21:29:00,46.1,37.2,30.21,ENE,74,1.0,3.0,71,0.00,,---,0.00,VWS V14.01,2013-04-23 02:29:00,
2013-04-22 21:30:00,46.1,36.9,30.21,NE,47,0.0,7.0,70,0.00,,---,0.00,VWS V14.01,2013-04-23 02:30:00,
2013-04-22 21:34:00,45.9,37.0,30.21,ENE,77,2.0,4.0,71,0.00,,---,0.00,VWS V14.01,2013-04-23 02:34:00,
2013-04-22 21:39:00,46.0,37.1,30.21,East,81,0.0,4.0,71,0.00,,---,0.00,VWS V14.01,2013-04-23 02:39:00,
2013-04-22 21:44:00,45.8,37.0,30.21,ENE,75,0.0,4.0,71,0.00,,---,0.00,VWS V14.01,2013-04-23 02:44:00,
2013-04-22 21:49:00,45.6,37.1,30.21,East,99,0.0,4.0,72,0.00,,---,0.00,VWS V14.01,2013-04-23 02:49:00,
2013-04-22 21:54:00,45.4,36.9,30.21,East,97,0.0,4.0,72,0.00,,---,0.00,VWS V14.01,2013-04-23 02:54:00,
2013-04-22 21:59:00,45.2,37.1,30.21,East,97,0.0,1.0,73,0.00,,---,0.00,VWS V14.01,2013-04-23 02:59:00,
2013-04-22 22:00:00,45.2,36.7,30.21,East,98,0.0,4.0,72,0.00,,---,0.00,VWS V14.01,2013-04-23 03:00:00,
2013-04-22 22:04:00,45.1,37.0,30.21,North,356,0.0,1.0,73,0.00,,---,0.00,VWS V14.01,2013-04-23 03:04:00,
2013-04-22 22:09:00,45.1,37.0,30.21,ENE,77,0.0,2.0,73,0.00,,---,0.00,VWS V14.01,2013-04-23 03:09:00,
2013-04-22 22:14:00,44.9,37.1,30.21,ENE,72,0.0,2.0,74,0.00,,---,0.00,VWS V14.01,2013-04-23 03:14:00,
2013-04-22 22:19:00,44.7,36.9,30.21,ENE,64,0.0,2.0,74,0.00,,---,0.00,VWS V14.01,2013-04-23 03:19:00,
2013-04-22 22:24:00,44.5,37.1,30.20,North,349,0.0,2.0,75,0.00,,---,0.00,VWS V14.01,2013-04-23 03:24:00,
2013-04-22 22:29:00,44.3,36.9,30.21,NE,46,0.0,0.0,75,0.00,,---,0.00,VWS V14.01,2013-04-23 03:29:00,
2013-04-22 22:30:00,44.4,37.0,30.20,NE,40,0.0,3.0,75,0.00,,---,0.00,VWS V14.01,2013-04-23 03:30:00,
2013-04-22 22:34:00,44.1,36.7,30.21,NE,46,0.0,0.0,75,0.00,,---,0.00,VWS V14.01,2013-04-23 03:34:00,
2013-04-22 22:39:00,43.9,36.8,30.20,NE,50,1.0,1.0,76,0.00,,---,0.00,VWS V14.01,2013-04-23 03:39:00,
2013-04-22 22:44:00,43.6,36.5,30.20,ENE,65,0.0,1.0,76,0.00,,---,0.00,VWS V14.01,2013-04-23 03:44:00,
2013-04-22 22:49:00,43.2,36.8,30.20,ENE,65,0.0,1.0,78,0.00,,---,0.00,VWS V14.01,2013-04-23 03:49:00,
2013-04-22 22:54:00,43.3,37.2,30.20,East,87,0.0,3.0,79,0.00,,---,0.00,VWS V14.01,2013-04-23 03:54:00,
2013-04-22 22:59:00,43.2,37.1,30.20,East,87,1.0,1.0,79,0.00,,---,0.00,VWS V14.01,2013-04-23 03:59:00,
2013-04-22 23:00:00,43.3,37.2,30.20,East,87,0.0,3.0,79,0.00,,---,0.00,VWS V14.01,2013-04-23 04:00:00,
2013-04-22 23:01:00,43.2,37.1,30.19,East,85,1.0,1.0,79,0.00,,---,0.00,VWS V14.01,2013-04-23 04:01:00,
2013-04-22 23:06:00,43.0,36.9,30.19,East,84,0.0,1.0,79,0.00,,---,0.00,VWS V14.01,2013-04-23 04:06:00,
2013-04-22 23:11:00,42.9,37.2,30.19,East,84,0.0,1.0,80,0.00,,---,0.00,VWS V14.01,2013-04-23 04:11:00,
2013-04-22 23:16:00,42.8,37.1,30.19,East,85,0.0,1.0,80,0.00,,---,0.00,VWS V14.01,2013-04-23 04:16:00,
2013-04-22 23:21:00,42.9,37.5,30.19,ENE,73,0.0,2.0,81,0.00,,---,0.00,VWS V14.01,2013-04-23 04:21:00,
2013-04-22 23:26:00,42.8,37.4,30.18,ENE,73,0.0,2.0,81,0.00,,---,0.00,VWS V14.01,2013-04-23 04:26:00,
2013-04-22 23:30:00,42.8,37.4,30.19,ENE,77,0.0,2.0,81,0.00,,---,0.00,VWS V14.01,2013-04-23 04:30:00,
2013-04-22 23:31:00,42.8,37.4,30.18,East,94,0.0,1.0,81,0.00,,---,0.00,VWS V14.01,2013-04-23 04:31:00,
2013-04-22 23:36:00,42.6,37.5,30.19,East,94,0.0,1.0,82,0.00,,---,0.00,VWS V14.01,2013-04-23 04:36:00,
2013-04-22 23:41:00,42.4,37.3,30.18,East,93,0.0,1.0,82,0.00,,---,0.00,VWS V14.01,2013-04-23 04:41:00,
2013-04-22 23:46:00,42.3,37.5,30.18,ENE,58,0.0,1.0,83,0.00,,---,0.00,VWS V14.01,2013-04-23 04:46:00,
2013-04-22 23:51:00,42.1,37.6,30.18,ENE,58,0.0,1.0,84,0.00,,---,0.00,VWS V14.01,2013-04-23 04:51:00,
2013-04-22 23:56:00,41.9,37.4,30.18,ENE,58,0.0,1.0,84,0.00,,---,0.00,VWS V14.01,2013-04-23 04:56:00,